Hourly Data Report for June 10, 2017

QUALICUM BEACH AIRPORT
BRITISH COLUMBIA

49°20'14.000" N
124°23'38.000" W
58.20 m
1026562
71766
VOQ

Download Data

Hourly Data (June 2017)
Hourly Data Report for June 10, 2017
TIME
LST
Temp Definition
°C
Dew Point Definition
°C
Rel Hum Definition
%
Precip. Amount Definition
mm

Wind Dir Definition
10's deg

Wind Spd Definition
km/h
Visibility Definition
km
Stn Press Definition
kPa
Hmdx Definition


Wind Chill Definition


Weather Definition


00:00 10.5 7.3 80 0.0 27 6   100.25     LegendNANA
01:00 8.7 7.6 92 0.0 26 6   100.26     LegendNANA
02:00 8.4 7.1 92 0.0 28 4   100.29     LegendNANA
03:00 9.7 7.4 86 0.0 28 6   100.30     LegendNANA
04:00 10.4 7.8 84 0.0 28 6   100.32     LegendNANA
05:00 10.3 7.8 84 0.0 27 5   100.34     LegendNANA
06:00 11.2 8.0 81 0.0 26 5   100.35     LegendNANA
07:00 12.9 8.3 74 0.0 29 9   100.35     LegendNANA
08:00 13.4 8.8 74 0.0 29 11   100.37     LegendNANA
09:00 14.4 7.9 65 0.0 31 14   100.37     LegendNANA
10:00 15.1 8.8 66 0.0 35 8   100.34     LegendNANA
11:00 15.4 8.3 63 0.0 1 8   100.35     LegendNANA
12:00 15.9 7.4 57 0.0 3 6   100.35     LegendNANA
13:00 17.0 7.3 53 0.0 35 8   100.34     LegendNANA
14:00 17.1 6.3 49 0.0 36 7   100.34     LegendNANA
15:00 18.3 6.9 47 0.0 33 10   100.33     LegendNANA
16:00 17.6 9.3 58 0.0 33 12   100.34     LegendNANA
17:00 17.2 9.3 60 0.0 34 10   100.39     LegendNANA
18:00 16.8 9.0 60 0.0 31 14   100.42     LegendNANA
19:00 16.5 9.5 63 0.0 31 9   100.43     LegendNANA
20:00 15.8 8.7 63 0.0 29 7   100.46     LegendNANA
21:00 15.1 8.7 66 0.0 31 9   100.54     LegendNANA
22:00 13.9 8.7 71 0.0 30 5   100.58     LegendNANA
23:00 13.3 8.2 71 0.0 31 7   100.63     LegendNANA

Notes on Data Quality.

Legend

  • E = Estimated
  • M = Missing
  • NA = Not Available*
  • [empty] = Indicates an unobserved value
Date modified: